Accueil
METAR-TAF:

METAR-TAF

Aéroports :

Monbetsu, Japon

latitude: 44-15N, longitude: 143-32E, altitude: 6 m

Observation

Le bulletin a été fait il y a 4 heures et 28 minutes, à 07:00 UTC
Vent 2 kt de direction variable
Température 21°C
Humidité 73%
Pression 1009 hPa
Visibilité 10 km ou plus
Quelques nuages à une hauteur de 4000 ft
Nuages fragmentés à une hauteur de 4500 ft

METAR: RJEB 190700Z VRB02KT 9999 FEW040 BKN045 21/16 Q1009

Heure: 20:28 (11:28 UTC)


TAF: absent

Observations et prévisions météorologiques de plus de 4000 aéroports (messages METAR et TAF).

Les stations disponibles sont représentées par des disques jaunes et rouges sur la carte.

Passer la souris dessus pour voir le nom de la station.

Cliquer dessus pour voir les observations et prévisions météorologiques.

Pour changer de carte: cliquez sur les boutons verts avec une croix noire pour zoomer, sur le bouton vert avec un tiret pour effectuer un zoom arrière, ou sur les flèches vertes pour les cartes adjacentes.


METAR-TAF: